Date String (YYYY-MM-DD hh:mm:ss) UTC,Instrument flags,Ambient pressure (hPa),Sample flow (lpm),Bypass flow (lpm),Sample temperature (°C),Ambient temperature (°C),ASC tube jacket temperature (°C),LED temperature (°C),Box temperature (°C),Sample RH (%),Span deviation,Mass concentration (μg/m³),Mass concentration (μg/m³),Mass concentration (μg/m³)
DateTimeUTC,F1_M11,P_M11,Q1_M11,Q2_M11,T1_M11,T2_M11,T3_M11,T4_M11,T5_M11,U1_M11,ZSPAN_M11,X0_M11,X2_M11,X1_M11
2021-10-05 18:00:00,,0831.8,5.00,0.00,29.7,28.4,00.0,38.7,31.5,13.8,0000.0,0013.96,0004.76,0003.64
2021-10-05 18:01:00,,0831.8,5.01,0.00,29.7,28.6,00.0,38.7,31.6,13.8,0000.0,0013.81,0004.79,0003.65
2021-10-05 18:02:00,,0831.8,5.00,0.00,29.8,28.8,00.0,38.7,31.6,13.2,0000.4,0013.46,0004.79,0003.64
2021-10-05 18:03:00,,0831.7,4.99,0.00,29.8,28.9,00.0,38.7,31.7,13.3,0000.0,0013.46,0004.77,0003.62
2021-10-05 18:04:00,,0831.7,5.00,0.00,29.9,29.0,00.0,38.8,31.8,13.4,0000.0,0012.72,0004.71,0003.62
2021-10-05 18:05:00,,0831.7,5.00,0.00,29.9,29.1,00.0,38.8,31.8,13.4,0000.0,0012.71,0004.67,0003.63
2021-10-05 18:06:00,,0831.7,5.01,0.00,29.9,28.4,00.0,38.8,31.6,13.2,0000.5,0012.62,0004.65,0003.64
2021-10-05 18:07:00,,0831.7,5.01,0.00,29.8,26.6,00.0,38.8,31.2,13.3,0002.2,0012.15,0004.64,0003.64
2021-10-05 18:08:00,,0831.7,5.00,0.00,29.7,26.1,00.0,38.8,31.0,13.4,0002.7,0012.17,0004.61,0003.65
2021-10-05 18:09:00,,0831.7,5.01,0.00,29.6,26.5,00.0,38.7,31.1,13.3,0002.4,0011.85,0004.63,0003.66
2021-10-05 18:10:00,,0831.7,4.99,0.00,29.5,27.0,00.0,38.7,31.2,13.2,0002.4,0012.28,0004.62,0003.66
2021-10-05 18:11:00,,0831.7,5.01,0.00,29.5,27.4,00.0,38.7,31.2,13.2,0002.1,0013.02,0004.60,0003.65
2021-10-05 18:12:00,,0831.7,4.99,0.00,29.6,27.7,00.0,38.6,31.3,13.1,0002.1,0012.83,0004.56,0003.64
2021-10-05 18:13:00,,0831.7,4.99,0.00,29.6,28.1,00.0,38.6,31.4,12.9,0000.4,0013.03,0004.57,0003.63
2021-10-05 18:14:00,,0831.7,5.02,0.00,29.6,28.3,00.0,38.6,31.5,12.7,0000.0,0013.06,0004.56,0003.64
2021-10-05 18:15:00,,0831.7,4.99,0.00,29.7,28.5,00.0,38.7,31.5,12.8,0000.0,0013.02,0004.62,0003.64
2021-10-05 18:16:00,,0831.7,4.99,0.00,29.7,28.7,00.0,38.7,31.6,12.6,0000.0,0012.37,0004.61,0003.63
2021-10-05 18:17:00,,0831.7,4.99,0.00,29.8,28.8,00.0,38.7,31.7,13.1,0000.0,0012.82,0004.58,0003.62
2021-10-05 18:18:00,,0831.7,5.00,0.00,29.8,28.9,00.0,38.7,31.7,12.9,0000.0,0012.94,0004.55,0003.62
2021-10-05 18:19:00,,0831.7,5.00,0.00,29.9,29.1,00.0,38.7,31.7,12.9,0000.0,0012.98,0004.56,0003.61
2021-10-05 18:20:00,,0831.6,5.01,0.00,29.9,28.9,00.0,38.8,31.8,12.8,0000.0,0013.68,0004.57,0003.60
2021-10-05 18:21:00,,0831.7,5.01,0.00,29.8,27.3,00.0,38.8,31.3,12.9,0000.0,0013.96,0004.61,0003.61
2021-10-05 18:22:00,,0831.6,5.00,0.00,29.7,26.1,00.0,38.7,30.9,12.7,0000.0,0014.22,0004.63,0003.60
2021-10-05 18:23:00,,0831.6,5.00,0.00,29.6,26.4,00.0,38.7,31.0,12.8,0000.0,0015.59,0004.63,0003.59
2021-10-05 18:24:00,,0831.6,5.00,0.00,29.5,26.8,00.0,38.7,31.1,12.9,0000.0,0015.65,0004.62,0003.59
2021-10-05 18:25:00,,0831.6,4.99,0.00,29.5,27.3,00.0,38.7,31.2,13.0,0000.0,0015.65,0004.63,0003.59
2021-10-05 18:26:00,,0831.6,5.01,0.00,29.6,27.6,00.0,38.6,31.3,12.8,0002.5,0015.78,0004.59,0003.59
2021-10-05 18:27:00,,0831.6,4.99,0.00,29.6,28.0,00.0,38.6,31.4,12.7,0002.8,0015.77,0004.63,0003.60
2021-10-05 18:28:00,,0831.5,5.01,0.00,29.6,28.3,00.0,38.6,31.4,12.9,0003.0,0015.76,0004.69,0003.60
2021-10-05 18:29:00,,0831.5,5.00,0.00,29.7,28.5,00.0,38.6,31.5,12.8,0001.1,0015.86,0004.70,0003.60
2021-10-05 18:30:00,,0831.5,5.00,0.00,29.7,28.7,00.0,38.7,31.6,12.7,0002.3,0015.67,0004.72,0003.60
2021-10-05 18:31:00,,0831.5,5.00,0.00,29.8,28.8,00.0,38.7,31.7,12.7,0002.4,0014.29,0004.66,0003.60
2021-10-05 18:32:00,,0831.5,5.00,0.00,29.8,29.0,00.0,38.7,31.7,12.4,0002.2,0013.65,0004.62,0003.59
2021-10-05 18:33:00,,0831.5,5.01,0.00,29.9,29.1,00.0,38.7,31.8,12.3,0002.2,0012.87,0004.62,0003.59
2021-10-05 18:34:00,,0831.6,5.00,0.00,29.9,27.9,00.0,38.7,31.5,12.8,0001.7,0011.99,0004.62,0003.59
2021-10-05 18:35:00,,0831.5,5.00,0.00,29.7,26.2,00.0,38.7,31.0,12.8,0001.7,0011.51,0004.58,0003.59
2021-10-05 18:36:00,,0831.5,5.00,0.00,29.6,26.2,00.0,38.7,31.0,12.9,0002.3,0011.35,0004.56,0003.60
2021-10-05 18:37:00,,0831.4,5.01,0.00,29.5,26.6,00.0,38.7,31.1,12.7,0001.3,0011.19,0004.60,0003.61
2021-10-05 18:38:00,,0831.4,5.00,0.00,29.5,27.1,00.0,38.6,31.1,13.0,0000.0,0011.12,0004.63,0003.62
2021-10-05 18:39:00,,0831.4,4.99,0.00,29.5,27.5,00.0,38.6,31.2,13.0,0000.3,0010.79,0004.61,0003.63
2021-10-05 18:40:00,,0831.5,5.00,0.00,29.5,27.8,00.0,38.6,31.3,13.2,0002.2,0011.43,0004.59,0003.63
2021-10-05 18:41:00,,0831.4,5.00,0.00,29.6,28.1,00.0,38.6,31.4,13.1,0000.9,0011.82,0004.59,0003.63
2021-10-05 18:42:00,,0831.5,5.02,0.00,29.6,28.4,00.0,38.6,31.5,13.0,0000.0,0012.53,0004.63,0003.63
2021-10-05 18:43:00,,0831.5,5.00,0.00,29.7,28.6,00.0,38.6,31.6,13.0,0001.6,0012.78,0004.66,0003.64
2021-10-05 18:44:00,,0831.5,4.99,0.00,29.7,28.8,00.0,38.6,31.6,13.1,0003.2,0012.74,0004.64,0003.66
2021-10-05 18:45:00,,0831.5,5.00,0.00,29.8,28.9,00.0,38.7,31.7,13.1,0003.2,0012.40,0004.66,0003.68
2021-10-05 18:46:00,,0831.4,5.00,0.00,29.8,29.0,00.0,38.7,31.8,13.0,0003.5,0013.08,0004.68,0003.68
2021-10-05 18:47:00,,0831.4,4.99,0.00,29.9,28.4,00.0,38.7,31.6,13.1,0003.3,0013.19,0004.67,0003.68
2021-10-05 18:48:00,,0831.3,5.00,0.00,29.7,26.5,00.0,38.7,31.0,13.1,0003.5,0014.54,0004.63,0003.69
2021-10-05 18:49:00,,0831.3,5.02,0.00,29.5,26.0,00.0,38.7,30.8,13.4,0003.3,0015.18,0004.64,0003.70
2021-10-05 18:50:00,,0831.3,5.00,0.00,29.5,26.4,00.0,38.7,31.0,13.4,0003.2,0015.71,0004.64,0003.71
2021-10-05 18:51:00,,0831.3,5.00,0.00,29.5,26.9,00.0,38.6,31.1,13.3,0003.5,0014.93,0004.68,0003.72
2021-10-05 18:52:00,,0831.2,5.00,0.00,29.5,27.3,00.0,38.6,31.1,13.1,0003.4,0014.60,0004.67,0003.72
2021-10-05 18:53:00,,0831.2,5.00,0.00,29.5,27.7,00.0,38.6,31.2,13.2,0002.1,0014.45,0004.65,0003.74
2021-10-05 18:54:00,,0831.2,5.00,0.00,29.5,28.1,00.0,38.6,31.3,13.1,0000.0,0014.80,0004.61,0003.74
2021-10-05 18:55:00,,0831.2,5.01,0.00,29.6,28.3,00.0,38.6,31.4,13.1,0000.0,0015.30,0004.62,0003.74
2021-10-05 18:56:00,,0831.2,4.99,0.00,29.6,28.5,00.0,38.6,31.5,13.0,0000.0,0015.89,0004.62,0003.74
2021-10-05 18:57:00,,0831.2,5.00,0.00,29.7,28.7,00.0,38.6,31.6,13.2,0000.0,0016.88,0004.65,0003.74
2021-10-05 18:58:00,,0831.2,5.00,0.00,29.7,28.9,00.0,38.6,31.6,13.5,0000.2,0017.08,0004.66,0003.75
2021-10-05 18:59:00,,0831.2,5.02,0.00,29.7,27.8,00.0,38.7,31.4,13.6,0000.3,0015.96,0004.65,0003.75
